Regional Weather Roundup
Issued by NWS

Home | Current Version | Previous Version | Text Only | Print | Product List | Glossary Off
Versions: 1 2 3 4 5 6 7 8 9 10 11 12 13 14 15 16 17 18 19 20 21 22 23 24 25 26 27 28 29 30 31 32 33 34 35 36 37 38 39 40 41 42 43 44 45 46 47 48 49 50

000
ASUS43 KLMK 222202
RWRKY
KENTUCKY REGIONAL WEATHER ROUNDUP
NATIONAL WEATHER SERVICE LOUISVILLE KY
600 PM EDT SAT APR 22 2017

NOTE "FAIR" INDICATES FEW OR NO CLOUDS BELOW 12,000 FEET
WITH NO SIGNIFICANT WEATHER AND/OR OBSTRUCTIONS TO VISIBILITY.

KYZ001>023-026-027-061>063-070>075-222300-
WESTERN AND SOUTH CENTRAL KENTUCKY

CITY           SKY/WX    TMP DP  RH WIND       PRES   REMARKS
PADUCAH        CLOUDY    56  47  71 NE16G29   29.93S
HENDERSON      CLOUDY    56  47  71 NE13      29.98R
OWENSBORO      CLOUDY    56  47  71 NE13      29.95F
HOPKINSVILLE   NOT AVBL
BOWLING GREEN  CLOUDY    55  51  86 NE12      29.93R
GLASGOW        NOT AVBL
$$

KYZ024-025-028>034-038-045-046-053-222300-
NORTH CENTRAL KENTUCKY

CITY           SKY/WX    TMP DP  RH WIND       PRES   REMARKS
LOUISVILLE/SDF PTSUNNY   55  43  63 NE15      29.98F
LOUISVILLE/LOU CLOUDY    54  41  61 NE14      29.99S
FORT KNOX      NOT AVBL
$$

KYZ035>037-039>044-047>052-055>060-089>105-222300-
NORTHEAST KENTUCKY

CITY           SKY/WX    TMP DP  RH WIND       PRES   REMARKS
LEXINGTON      CLOUDY    51  45  79 NE15G25   29.96F
COVINGTON      CLOUDY    54  38  54 NE12      30.02S
FRANKFORT      CLOUDY    52  41  66 NE14G21   29.96F
$$

KYZ054-064>069-076>088-106>120-222300-
SOUTHEAST KENTUCKY

CITY           SKY/WX    TMP DP  RH WIND       PRES   REMARKS
JACKSON        LGT RAIN  48  46  93 CALM      29.99R
LONDON         LGT RAIN  49  45  86 NE9       29.97R
SOMERSET       NOT AVBL
MIDDLESBORO    DRIZZLE   56  54  93 N8        29.92R
MONTICELLO     LGT RAIN  50  48  93 N15G25    29.95F
$$





USA.gov is the U.S. government's official web portal to all federal, state and local government web resources and services.